• In Czech Republic
  • List of Countries
  • For 7 days
  • Water Temperature
  • Satellite Maps
  • Weather Map
  • Weather Widgets
  • user-avatar
    Login

    Hourly Weather Mikołów

    Today, 26 September, Wednesday

    Time Temperature Precipitation Wind Pressure Humidity
    00:00 +5°C° 0 mm 2 mps 749 mmHg 77%
    01:00 +4°C° 0 mm 2 mps 749 mmHg 79%
    02:00 +4°C° 0 mm 2 mps 749 mmHg 79%
    03:00 +4°C° 0 mm 2 mps 749 mmHg 80%
    04:00 +4°C° 0 mm 2 mps 749 mmHg 81%
    05:00 +4°C° 0 mm 2 mps 749 mmHg 78%
    06:00 +5°C° 0 mm 2 mps 749 mmHg 76%
    07:00 +5°C° 0 mm 2 mps 749 mmHg 73%
    08:00 +7°C° 0 mm 2 mps 749 mmHg 65%
    09:00 +9°C° 0 mm 3 mps 749 mmHg 57%
    10:00 +11°C° 0 mm 3 mps 749 mmHg 49%
    11:00 +12°C° 0 mm 4 mps 748 mmHg 46%
    12:00 +13°C° 0 mm 4 mps 748 mmHg 43%
    13:00 +14°C° 0 mm 4 mps 747 mmHg 40%
    14:00 +14°C° 0 mm 4 mps 747 mmHg 42%
    15:00 +14°C° 0 mm 4 mps 746 mmHg 44%
    16:00 +13°C° 0 mm 4 mps 746 mmHg 45%
    17:00 +13°C° 0 mm 4 mps 746 mmHg 48%
    18:00 +12°C° 0 mm 4 mps 745 mmHg 50%
    19:00 +11°C° 0 mm 4 mps 745 mmHg 52%
    20:00 +11°C° 0 mm 4 mps 745 mmHg 52%
    21:00 +10°C° 0 mm 4 mps 745 mmHg 51%
    22:00 +10°C° 0 mm 4 mps 745 mmHg 50%
    23:00 +10°C° 0 mm 4 mps 745 mmHg 50%

    Tomorrow, 27 September, Thursday

    Time Temperature Precipitation Wind Pressure Humidity
    00:00 +8°C° 0 mm 4 mps 745 mmHg 50%
    01:00 +8°C° 0 mm 4 mps 744 mmHg 51%
    02:00 +8°C° 0 mm 4 mps 744 mmHg 51%
    03:00 +8°C° 0 mm 4 mps 744 mmHg 52%
    04:00 +7°C° 0 mm 4 mps 744 mmHg 52%
    05:00 +8°C° 0 mm 4 mps 743 mmHg 51%
    06:00 +10°C° 0 mm 4 mps 743 mmHg 50%
    07:00 +10°C° 0 mm 4 mps 743 mmHg 49%
    08:00 +12°C° 0 mm 4 mps 743 mmHg 47%
    09:00 +14°C° 0 mm 4 mps 743 mmHg 44%
    10:00 +17°C° 0 mm 4 mps 743 mmHg 42%
    11:00 +18°C° 0 mm 4 mps 743 mmHg 43%
    12:00 +19°C° 0 mm 4 mps 743 mmHg 43%
    13:00 +20°C° 0 mm 3 mps 743 mmHg 44%
    14:00 +20°C° 0 mm 3 mps 742 mmHg 46%
    15:00 +20°C° 0 mm 3 mps 742 mmHg 49%
    16:00 +20°C° 0 mm 3 mps 741 mmHg 51%
    17:00 +19°C° 0 mm 3 mps 741 mmHg 55%
    18:00 +17°C° 0 mm 2 mps 741 mmHg 58%
    19:00 +15°C° 0 mm 2 mps 741 mmHg 62%
    20:00 +15°C° 0 mm 2 mps 740 mmHg 62%
    21:00 +13°C° 0 mm 3 mps 740 mmHg 62%
    22:00 +13°C° 0 mm 3 mps 740 mmHg 63%
    23:00 +13°C° 0 mm 3 mps 739 mmHg 62%

    Day after tomorrow, 28 September, Friday

    Time Temperature Precipitation Wind Pressure Humidity
    00:00 +12°C° 0 mm 3 mps 739 mmHg 62%
    01:00 +12°C° 0 mm 3 mps 738 mmHg 61%
    02:00 +12°C° 0 mm 3 mps 738 mmHg 61%
    03:00 +12°C° 0 mm 3 mps 737 mmHg 60%
    04:00 +11°C° 0 mm 3 mps 737 mmHg 60%
    05:00 +12°C° 0 mm 3 mps 737 mmHg 59%
    06:00 +12°C° 0 mm 3 mps 736 mmHg 58%
    07:00 +12°C° 0 mm 3 mps 736 mmHg 57%
    08:00 +14°C° 0 mm 3 mps 736 mmHg 52%
    09:00 +17°C° 0 mm 4 mps 736 mmHg 47%
    10:00 +18°C° 0 mm 4 mps 736 mmHg 43%
    11:00 +19°C° 0 mm 4 mps 736 mmHg 42%
    12:00 +20°C° 0 mm 4 mps 736 mmHg 42%
    13:00 +20°C° 0 mm 4 mps 736 mmHg 41%
    14:00 +19°C° 0 mm 4 mps 735 mmHg 47%
    15:00 +19°C° 0 mm 4 mps 735 mmHg 52%
    16:00 +18°C° 0 mm 4 mps 735 mmHg 57%
    17:00 +15°C° 0 mm 4 mps 735 mmHg 65%
    18:00 +13°C° 0 mm 3 mps 735 mmHg 74%
    19:00 +12°C° 0 mm 3 mps 736 mmHg 82%
    20:00 +13°C° 0 mm 2 mps 736 mmHg 80%
    21:00 +13°C° 0 mm 2 mps 736 mmHg 79%
    22:00 +12°C° 0 mm 2 mps 736 mmHg 77%
    23:00 +12°C° 0 mm 2 mps 736 mmHg 76%

    29 September, Saturday

    Time Temperature Precipitation Wind Pressure Humidity
    00:00 +12°C° 0 mm 2 mps 736 mmHg 76%
    01:00 +10°C° 0 mm 2 mps 736 mmHg 76%
    02:00 +10°C° 0.1 mm 2 mps 736 mmHg 77%
    03:00 +10°C° 0.1 mm 2 mps 737 mmHg 78%
    04:00 +9°C° 0.1 mm 2 mps 737 mmHg 79%
    05:00 +9°C° 0.2 mm 2 mps 737 mmHg 79%
    06:00 +9°C° 0.2 mm 2 mps 737 mmHg 79%
    07:00 +9°C° 0.2 mm 2 mps 737 mmHg 79%
    08:00 +10°C° 0.1 mm 2 mps 738 mmHg 75%
    09:00 +10°C° 0.1 mm 3 mps 738 mmHg 70%
    10:00 +11°C° 0.1 mm 3 mps 738 mmHg 66%
    11:00 +12°C° 0.1 mm 3 mps 739 mmHg 61%
    12:00 +13°C° 0.1 mm 3 mps 739 mmHg 56%
    13:00 +13°C° 0.1 mm 4 mps 739 mmHg 51%
    14:00 +13°C° 0 mm 4 mps 739 mmHg 51%
    15:00 +13°C° 0 mm 4 mps 739 mmHg 51%
    16:00 +13°C° 0 mm 4 mps 739 mmHg 51%
    17:00 +12°C° 0 mm 4 mps 739 mmHg 55%
    18:00 +10°C° 0 mm 3 mps 740 mmHg 59%
    19:00 +9°C° 0 mm 3 mps 740 mmHg 63%
    20:00 +9°C° 0 mm 3 mps 740 mmHg 65%
    21:00 +8°C° 0 mm 3 mps 740 mmHg 67%
    22:00 +8°C° 0 mm 3 mps 741 mmHg 69%
    23:00 +7°C° 0 mm 3 mps 741 mmHg 71%

    30 September, Sunday

    Time Temperature Precipitation Wind Pressure Humidity
    00:00 +7°C° 0 mm 3 mps 741 mmHg 74%
    01:00 +6°C° 0 mm 2 mps 741 mmHg 76%
    02:00 +6°C° 0 mm 2 mps 740 mmHg 79%
    03:00 +6°C° 0 mm 2 mps 740 mmHg 81%
    04:00 +5°C° 0 mm 2 mps 740 mmHg 84%
    05:00 +6°C° 0 mm 2 mps 740 mmHg 84%
    06:00 +6°C° 0 mm 2 mps 740 mmHg 83%
    07:00 +6°C° 0 mm 2 mps 740 mmHg 83%
    08:00 +8°C° 0 mm 3 mps 740 mmHg 75%
    09:00 +11°C° 0 mm 3 mps 740 mmHg 67%
    10:00 +13°C° 0 mm 3 mps 740 mmHg 60%
    11:00 +14°C° 0 mm 3 mps 739 mmHg 57%
    12:00 +16°C° 0 mm 3 mps 739 mmHg 54%
    13:00 +17°C° 0 mm 3 mps 738 mmHg 51%
    14:00 +16°C° 0 mm 3 mps 738 mmHg 53%
    15:00 +16°C° 0 mm 3 mps 738 mmHg 55%
    16:00 +16°C° 0 mm 3 mps 737 mmHg 56%
    17:00 +15°C° 0 mm 2 mps 737 mmHg 63%
    18:00 +13°C° 0 mm 2 mps 737 mmHg 70%
    19:00 +12°C° 0 mm 2 mps 737 mmHg 76%
    20:00 +10°C° 0 mm 2 mps 737 mmHg 79%
    21:00 +11°C° 0 mm 1 mps 737 mmHg 81%
    22:00 +11°C° 0 mm 1 mps 736 mmHg 84%
    23:00 +10°C° 0 mm 1 mps 736 mmHg 86%

    1 October, Monday

    Time Temperature Precipitation Wind Pressure Humidity
    00:00 +10°C° 0 mm 1 mps 736 mmHg 87%
    01:00 +10°C° 0 mm 1 mps 736 mmHg 89%
    02:00 +10°C° 0 mm 1 mps 735 mmHg 90%
    03:00 +9°C° 0 mm 1 mps 735 mmHg 90%
    04:00 +8°C° 0 mm 0 mps 735 mmHg 91%
    05:00 +9°C° 0 mm 0 mps 735 mmHg 90%
    06:00 +9°C° 0 mm 0 mps 735 mmHg 88%
    07:00 +10°C° 0 mm 0 mps 735 mmHg 87%
    08:00 +12°C° 0 mm 0 mps 735 mmHg 79%
    09:00 +14°C° 0 mm 1 mps 735 mmHg 71%
    10:00 +16°C° 0 mm 1 mps 735 mmHg 64%
    11:00 +18°C° 0 mm 1 mps 735 mmHg 61%
    12:00 +19°C° 0 mm 1 mps 734 mmHg 58%
    13:00 +19°C° 0 mm 2 mps 734 mmHg 55%
    14:00 +18°C° 0.1 mm 2 mps 734 mmHg 57%
    15:00 +18°C° 0.1 mm 3 mps 734 mmHg 60%
    16:00 +17°C° 0.1 mm 3 mps 733 mmHg 63%
    17:00 +16°C° 0.2 mm 3 mps 734 mmHg 68%
    18:00 +13°C° 0.2 mm 3 mps 734 mmHg 74%
    19:00 +12°C° 0.2 mm 3 mps 734 mmHg 79%
    20:00 +11°C° 1.2 mm 3 mps 734 mmHg 82%
    21:00 +11°C° 1.2 mm 4 mps 734 mmHg 85%
    22:00 +10°C° 1.2 mm 4 mps 734 mmHg 87%
    23:00 +8°C° 1.4 mm 4 mps 734 mmHg 86%
    Show more